Stations météo

réclame
Mon MeteoGroup
Loch Glascarnoch, Grande-Bretagne (3031): Température de l'air & dewpoint: 19.11.2017 01:00:00 - 25.11.2017 01:00:00 (GMT)Loch Glascarnoch, Grande-Bretagne (3031): Vitesse du vent & gusts: 19.11.2017 01:00:00 - 25.11.2017 01:00:00 (GMT)Loch Glascarnoch, Grande-Bretagne (3031): Direction du vent: 19.11.2017 01:00:00 - 25.11.2017 01:00:00 (GMT)Loch Glascarnoch, Grande-Bretagne (3031): reduced air pressure: 19.11.2017 01:00:00 - 25.11.2017 01:00:00 (GMT)Loch Glascarnoch, Grande-Bretagne (3031): visibility: 19.11.2017 01:00:00 - 25.11.2017 01:00:00 (GMT)Loch Glascarnoch, Grande-Bretagne (3031): Ensoleillement: 19.11.2017 01:00:00 - 25.11.2017 01:00:00 (GMT)Loch Glascarnoch, Grande-Bretagne (3031): Quantités de précipitations: 19.11.2017 01:00:00 - 25.11.2017 01:00:00 (GMT)
Date & Time tt [°C] td [°C] ff [km/h] ff [knt] fx [km/h] fx [knt] dd ppp [hPa] vv [km] sd [min] rr [mm]
25.11.2017 01:00:00 0,4 0,1 26 14 - - W 1005,8 6 0 0,0
25.11.2017 00:00:00 0,5 -0,1 29 16 52 28 W 1006,0 10 - 0,0
24.11.2017 23:00:00 0,2 -0,6 29 16 48 26 WNW 1005,4 40 0 0,0
24.11.2017 22:00:00 0,6 -0,5 26 14 - - WNW 1004,8 45 0 0,0
24.11.2017 21:00:00 0,4 -0,1 24 13 - - WNW 1005,0 3,2 0 0,0
24.11.2017 20:00:00 0,5 0,1 26 14 - - WNW 1004,1 45 0 0,0
24.11.2017 19:00:00 0,7 -0,2 28 15 46 25 WNW 1004,1 8 0 0,0
24.11.2017 18:00:00 -0,6 -1,3 29 16 - - W 1003,7 40 0 0,0
24.11.2017 17:00:00 0,3 0,0 26 14 - - WNW 1003,7 1,4 0 0,0
24.11.2017 16:00:00 0,0 -0,3 22 12 - - W 1003,4 0,8 0 0,0
24.11.2017 15:00:00 1,3 -1,2 29 16 - - W 1002,9 7 0 0,0
24.11.2017 14:00:00 0,6 -1,5 21 11 46 25 W 1002,6 13 12 0,0
24.11.2017 13:00:00 0,0 -1,1 11 6 - - WNW 1003,1 24 24 0,0
24.11.2017 12:00:00 1,3 -2,3 18 10 - - W 1002,8 45 48 0,0
24.11.2017 11:00:00 -0,7 -3,4 22 12 - - WSW 1002,9 50 0 0,0
24.11.2017 10:00:00 -0,9 -1,4 24 13 46 25 W 1002,7 0,9 0 0,0
24.11.2017 09:00:00 -0,1 -2,6 21 11 - - WSW 1002,2 30 0 0,0
24.11.2017 08:00:00 -0,7 -2,6 9 5 - - SW 1002,4 50 0 -
24.11.2017 07:00:00 -0,7 -1,0 5 3 - - WNW 1002,5 8 0 0,0
24.11.2017 06:00:00 -0,3 -1,3 8 4 - - W 1002,3 18 0 -
24.11.2017 05:00:00 0,3 -1,9 28 15 - - WSW 1001,6 22 0 0,0
24.11.2017 04:00:00 -0,7 -3,5 16 9 - - WNW 1001,4 40 0 0,0
24.11.2017 03:00:00 0,8 -2,8 22 12 - - W 1001,1 45 0 0,0
24.11.2017 02:00:00 -0,2 -0,9 18 10 - - W 1001,1 13 0 0,0
24.11.2017 01:00:00 1,2 -2,3 22 12 - - W 999,9 45 0 0,0
24.11.2017 00:00:00 -0,2 -1,8 22 12 61 33 W 999,9 4,8 - 0,0
23.11.2017 23:00:00 1,4 -1,3 35 19 - - WNW 998,8 40 0 0,0
23.11.2017 22:00:00 0,5 -1,6 29 16 - - WNW 998,0 40 0 0,0
23.11.2017 21:00:00 0,7 -1,3 18 10 - - WNW 997,6 6 0 0,0
23.11.2017 20:00:00 0,0 -2,5 22 12 - - W 996,5 11 0 0,0
23.11.2017 19:00:00 1,1 -1,0 26 14 46 25 W 995,1 35 0 0,0
23.11.2017 18:00:00 0,5 -0,2 22 12 - - W 994,1 25 0 0,0
23.11.2017 17:00:00 -0,3 -1,2 16 9 - - W 993,2 24 0 0,0
23.11.2017 16:00:00 0,3 -0,9 31 17 52 28 WNW 991,9 1,9 0 0,0
23.11.2017 15:00:00 0,8 -0,3 29 16 46 25 W 990,2 3,6 0 0,8
23.11.2017 14:00:00 1,1 0,1 29 16 - - WNW 988,8 24 12 0,8
23.11.2017 13:00:00 1,1 -0,3 26 14 - - WNW 987,9 28 30 0,6
23.11.2017 12:00:00 -0,5 -1,1 8 4 - - WNW 986,9 50 12 0,0
23.11.2017 11:00:00 0,0 -0,4 9 5 - - WNW 986,1 3,4 18 0,0
23.11.2017 10:00:00 0,0 -0,2 9 5 - - WNW 984,8 7 0 0,0
23.11.2017 09:00:00 -0,3 -0,5 9 5 - - WNW 983,5 2,8 0 0,0
23.11.2017 08:00:00 -0,3 -0,8 9 5 - - WNW 982,3 1,4 0 0,0
23.11.2017 07:00:00 -0,4 -0,5 11 6 - - WNW 981,0 0,5 0 0,0
23.11.2017 06:00:00 -0,5 -0,7 9 5 - - WNW 979,9 0,2 0 0,0
23.11.2017 05:00:00 -0,3 -0,6 13 7 - - WNW 979,2 3,2 0 0,0
23.11.2017 04:00:00 -2,8 -4,1 5 3 - - W 979,2 50 0 0,0
23.11.2017 03:00:00 -1,1 -2,9 16 9 - - WNW 978,9 45 0 0,0
23.11.2017 02:00:00 -1,3 -3,0 8 4 - - WNW 979,1 50 0 0,0
23.11.2017 01:00:00 -1,5 -2,4 8 4 - - WSW 979,7 45 0 -
23.11.2017 00:00:00 -1,3 -2,2 5 3 - - W 980,4 45 - 0,0
22.11.2017 23:00:00 -0,9 -2,0 4 2 - - W 980,3 50 0 0,0
22.11.2017 22:00:00 -0,6 -1,7 8 4 - - W 980,8 50 0 0,0
22.11.2017 21:00:00 -1,0 -2,0 5 3 - - W 981,2 50 0 0,0
22.11.2017 20:00:00 -0,6 -1,6 4 2 - - W 981,6 50 0 0,0
22.11.2017 19:00:00 0,2 -0,6 2 1 - - WSW 982,1 50 0 0,0
22.11.2017 18:00:00 0,8 -0,6 4 2 - - ESE 982,5 50 0 0,0
22.11.2017 17:00:00 1,6 -1,0 2 1 - - SE 982,6 50 0 0,0
22.11.2017 16:00:00 0,8 -0,7 4 2 - - W 983,4 50 0 0,0
22.11.2017 15:00:00 2,2 0,2 8 4 - - ESE 983,7 50 0 0,0
22.11.2017 14:00:00 2,5 0,7 4 2 - - E 984,2 50 0 0,0
22.11.2017 13:00:00 2,2 0,4 2 1 - - E 985,1 45 0 0,0
22.11.2017 12:00:00 1,7 0,6 2 1 - - E 985,7 45 0 0,0
22.11.2017 11:00:00 1,7 0,6 8 4 - - WNW 985,9 50 0 0,0
22.11.2017 10:00:00 1,7 0,0 13 7 - - W 986,1 40 0 0,0
22.11.2017 09:00:00 1,1 0,1 13 7 - - W 986,4 50 0 0,0
22.11.2017 08:00:00 2,1 -0,2 21 11 - - W 986,4 50 0 0,0
22.11.2017 07:00:00 2,5 0,8 18 10 - - W 986,9 45 0 0,2
22.11.2017 06:00:00 3,6 1,7 26 14 - - W 986,8 19 0 0,0
22.11.2017 05:00:00 3,9 3,3 21 11 - - W 987,2 8 0 0,2
22.11.2017 04:00:00 3,9 3,1 13 7 - - WNW 987,5 21 0 0,0
22.11.2017 03:00:00 4,5 2,8 22 12 - - W 987,7 50 0 0,0
22.11.2017 02:00:00 5,2 3,0 22 12 - - WSW 988,0 50 0 0,0
22.11.2017 01:00:00 5,3 4,6 18 10 - - WNW 987,9 12 0 0,0
22.11.2017 00:00:00 4,9 4,5 11 6 - - W 988,0 50 - 0,0
21.11.2017 23:00:00 3,3 3,2 9 5 - - WNW 988,5 50 0 -
21.11.2017 22:00:00 3,2 3,0 9 5 - - WSW 988,9 50 0 0,2
21.11.2017 21:00:00 2,7 2,4 5 3 - - W 989,0 50 0 0,0
21.11.2017 20:00:00 3,6 3,3 5 3 - - W 989,5 45 0 0,8
21.11.2017 19:00:00 4,1 4,0 0 0 - - N 990,3 11 0 2,4
21.11.2017 18:00:00 4,3 4,2 2 1 - - NW 991,1 11 0 5,4
21.11.2017 17:00:00 4,3 4,2 2 1 - - WNW 992,1 5 0 3,4
21.11.2017 16:00:00 4,2 4,0 2 1 - - SE 993,3 19 0 2,8
21.11.2017 15:00:00 4,6 4,4 4 2 - - N 995,5 7 0 2,2
21.11.2017 14:00:00 4,5 4,4 2 1 - - E 997,0 8 0 1,0
21.11.2017 13:00:00 4,7 4,4 2 1 - - E 998,5 18 0 1,2
21.11.2017 12:00:00 4,9 4,6 4 2 - - NE 1000,0 18 0 1,4
21.11.2017 11:00:00 4,6 4,5 4 2 - - NNE 1001,1 23 0 0,6
21.11.2017 10:00:00 4,5 4,3 2 1 - - NNE 1002,3 12 0 -
21.11.2017 09:00:00 4,3 4,2 4 2 - - N 1003,3 4,0 0 0,6
21.11.2017 08:00:00 4,4 4,0 2 1 - - ENE 1004,0 3,4 0 0,4
21.11.2017 07:00:00 4,6 4,1 5 3 - - SE 1004,4 7 0 0,2
21.11.2017 06:00:00 4,6 3,9 9 5 - - SE 1004,8 50 0 0,0
21.11.2017 05:00:00 4,5 3,8 13 7 - - SE 1005,5 27 0 0,0
21.11.2017 04:00:00 4,4 3,8 11 6 - - SE 1006,2 15 0 0,2
21.11.2017 03:00:00 4,2 3,8 15 8 - - ESE 1006,6 5 0 0,2
21.11.2017 02:00:00 4,3 3,7 15 8 - - ESE 1007,0 11 0 0,0
21.11.2017 01:00:00 4,4 3,6 18 10 - - E 1007,5 18 0 0,0
21.11.2017 00:00:00 4,4 3,6 16 9 - - E 1007,9 10 - 0,2
20.11.2017 23:00:00 4,3 3,7 15 8 - - E 1008,0 11 0 0,2
20.11.2017 22:00:00 4,2 3,7 11 6 - - ESE 1008,3 15 0 0,0
20.11.2017 21:00:00 4,3 3,8 18 10 - - SE 1008,4 7 0 0,4
20.11.2017 20:00:00 4,1 3,7 15 8 - - SE 1008,5 7 0 0,0
20.11.2017 19:00:00 4,0 3,6 13 7 - - SE 1008,6 18 0 0,2
20.11.2017 18:00:00 4,0 3,6 15 8 - - ESE 1008,6 8 0 0,4
20.11.2017 17:00:00 4,1 3,5 15 8 - - ESE 1008,6 8 0 0,0
20.11.2017 16:00:00 3,8 3,4 15 8 - - ESE 1008,1 24 0 0,0
20.11.2017 15:00:00 3,6 3,1 21 11 - - E 1007,9 35 0 0,0
20.11.2017 14:00:00 3,7 2,6 21 11 - - E 1007,7 50 0 0,0
20.11.2017 13:00:00 4,0 2,4 16 9 - - SE 1007,9 50 0 0,0
20.11.2017 12:00:00 4,0 2,4 11 6 - - ESE 1007,7 50 0 0,0
20.11.2017 11:00:00 3,8 1,9 9 5 - - E 1007,2 50 0 0,0
20.11.2017 10:00:00 3,4 1,9 15 8 - - E 1007,1 23 0 0,4
20.11.2017 09:00:00 3,4 1,7 15 8 - - E 1006,8 16 0 0,8
20.11.2017 08:00:00 2,8 1,7 13 7 - - ESE 1006,8 16 0 1,0
20.11.2017 07:00:00 2,2 1,5 9 5 - - SE 1007,1 8 0 1,0
20.11.2017 06:00:00 2,2 1,2 15 8 - - SE 1007,3 9 0 -
20.11.2017 05:00:00 1,9 1,1 16 9 - - SE 1008,1 19 0 1,4
20.11.2017 04:00:00 1,7 0,9 11 6 - - SE 1009,5 10 0 1,6
20.11.2017 03:00:00 1,4 0,8 13 7 - - SE 1010,5 10 0 1,4
20.11.2017 02:00:00 0,9 0,4 2 1 - - NNW 1011,8 7 0 0,6
20.11.2017 01:00:00 0,7 0,5 11 6 - - SE 1012,9 15 0 0,4
20.11.2017 00:00:00 0,3 0,1 5 3 - - E 1014,4 2,9 - 0,2
19.11.2017 23:00:00 0,6 0,3 13 7 - - ESE 1015,5 12 0 1,2
19.11.2017 22:00:00 0,7 0,2 15 8 - - ESE 1016,3 12 0 0,8
19.11.2017 21:00:00 1,9 1,3 9 5 - - ESE 1017,1 12 0 0,2
19.11.2017 20:00:00 1,7 0,9 2 1 - - S 1018,0 29 0 0,0
19.11.2017 19:00:00 2,0 1,3 8 4 - - ENE 1018,6 45 0 0,0
19.11.2017 18:00:00 2,0 1,2 5 3 - - E 1018,9 50 0 0,0
19.11.2017 17:00:00 1,8 1,1 4 2 - - ENE 1019,7 50 0 0,0
19.11.2017 16:00:00 2,1 1,2 2 1 - - W 1020,1 45 0 0,0
19.11.2017 15:00:00 2,9 1,5 4 2 - - E 1020,0 35 0 0,0
19.11.2017 14:00:00 3,2 1,1 2 1 - - E 1020,7 45 0 0,0
19.11.2017 13:00:00 3,0 1,5 4 2 - - ESE 1021,3 30 0 0,0
19.11.2017 12:00:00 2,5 0,7 2 1 - - S 1021,9 45 42 0,0
19.11.2017 11:00:00 2,7 2,4 2 1 - - SSW 1022,1 35 12 0,0
19.11.2017 10:00:00 0,6 0,3 2 1 - - WSW 1022,5 29 0 0,0
19.11.2017 09:00:00 0,9 0,7 2 1 - - W 1022,4 35 0 0,6
19.11.2017 08:00:00 1,0 0,8 8 4 - - W 1022,3 8 0 -
19.11.2017 07:00:00 0,5 0,2 5 3 - - W 1022,2 24 0 0,0
19.11.2017 06:00:00 0,9 0,4 9 5 - - W 1022,1 20 0 0,8
19.11.2017 05:00:00 1,1 0,6 8 4 - - W 1022,3 6 0 0,0
19.11.2017 04:00:00 1,6 0,8 4 2 - - W 1022,2 22 0 0,2
19.11.2017 03:00:00 1,7 0,8 5 3 - - NW 1021,9 6 0 0,2
19.11.2017 02:00:00 1,6 0,5 8 4 - - W 1021,8 18 0 0,4
19.11.2017 01:00:00 1,3 0,2 4 2 - - W 1021,5 18 0 0,0

tt = Température de l'air
td = dewpoint
ff = Vitesse du vent
fx = gusts
dd = Direction du vent
ppp = reduced air pressure
vv = visibility
sd = Ensoleillement
rr = Quantités de précipitations

stations d'obs. à proximité